FW4468 Weather Reports


Display with metric or nautical units.
time (UTC)temp
F
wind
direction
speed
MPH
gust
MPH
rain 1hr
in
rain 24hr
in
rain mn
in
humidity
%
barometer
mb
20240523130047 47 129 1.0 6.0 0.00 0.00 0.00 75 1019.5
20240523124547 47 219 0.0 6.0 0.00 0.01 0.00 75 1019.5
20240523123045 47 157 0.0 5.0 0.00 0.01 0.00 75 1019.4
20240523121546 46 159 0.0 3.0 0.00 0.01 0.00 75 1019.4
20240523120042 46 91 0.0 8.0 0.00 0.01 0.00 75 1019.4
20240523114541 46 143 2.0 6.0 0.00 0.03 0.00 75 1019.3
20240523113053 46 143 0.0 3.0 0.00 0.03 0.00 75 1019.3
20240523111540 47 145 1.0 5.0 0.00 0.03 0.00 75 1019.3
20240523110043 46 128 0.0 8.0 0.00 0.03 0.00 76 1019.2
20240523104536 46 140 0.0 5.0 0.00 0.03 0.00 76 1019.2
20240523103050 46 155 0.0 5.0 0.00 0.03 0.00 76 1019.0
20240523101540 47 170 0.0 6.0 0.00 0.03 0.00 76 1018.9
20240523100036 47 149 1.0 5.0 0.00 0.03 0.00 76 1018.9
20240523094529 47 138 2.0 8.0 0.00 0.16 0.00 76 1018.7
20240523093043 47 124 1.0 9.0 0.00 0.16 0.00 76 1018.7
20240523091627 47 159 1.0 7.0 0.00 0.16 0.00 76 1018.7
20240523090028 47 134 0.0 4.0 0.00 0.16 0.00 75 1018.6
20240523084522 48 163 0.0 7.0 0.00 0.20 0.00 75 1018.6
20240523083040 48 146 1.0 7.0 0.00 0.20 0.00 74 1018.5
20240523081516 49 137 0.0 2.0 0.00 0.20 0.00 74 1018.3
20240523080016 49 136 0.0 6.0 0.00 0.20 0.00 73 1018.4
20240523074516 50 213 1.0 7.0 0.00 0.23 0.00 72 1018.2
20240523073010 50 159 1.0 6.0 0.00 0.23 0.00 72 1018.2
20240523071511 50 149 1.0 5.0 0.00 0.23 0.00 72 1018.1
20240523070108 50 157 1.0 5.0 0.00 0.23 0.00 72 1018.1
20240523064506 50 132 0.0 4.0 0.00 0.24 0.23 72 1018.0
20240523063006 50 140 0.0 2.0 0.00 0.24 0.23 72 1017.8
20240523061506 51 124 0.0 2.0 0.00 0.24 0.23 72 1017.9
20240523060005 52 124 0.0 1.0 0.00 0.24 0.23 72 1018.0
20240523054505 52 124 0.0 0.0 0.00 0.24 0.23 71 1018.1
20240523053007 52 124 0.0 0.0 0.00 0.24 0.23 71 1018.1
20240523051502 52 124 0.0 0.0 0.00 0.24 0.23 71 1018.0
20240523050003 52 124 0.0 0.0 0.00 0.24 0.23 70 1017.7
20240523044600 53 124 0.0 0.0 0.00 0.24 0.23 69 1017.7
20240523043102 53 124 0.0 0.0 0.00 0.24 0.23 68 1017.4
20240523041557 53 124 0.0 0.0 0.00 0.24 0.23 67 1017.3
20240523040058 54 124 0.0 1.0 0.00 0.24 0.23 66 1017.2
20240523034557 54 124 0.0 1.0 0.00 0.24 0.23 64 1017.2
20240523033057 54 124 0.0 1.0 0.00 0.24 0.23 62 1017.1
20240523031556 55 124 0.0 1.0 0.00 0.24 0.23 63 1016.9
20240523030050 55 123 0.0 1.0 0.00 0.24 0.23 61 1016.8
20240523024551 55 123 0.0 2.0 0.00 0.24 0.23 60 1016.7
20240523023049 56 148 0.0 2.0 0.00 0.24 0.23 60 1016.7
20240523021600 56 146 0.0 3.0 0.00 0.24 0.23 58 1016.6
20240523020048 57 143 0.0 3.0 0.00 0.24 0.23 59 1016.3
20240523014647 57 158 2.0 4.0 0.00 0.24 0.23 55 1016.3
20240523013044 57 143 1.0 5.0 0.00 0.24 0.23 57 1016.1
20240523011547 57 93 1.0 4.0 0.00 0.24 0.23 58 1016.0
20240523010047 57 146 1.0 3.0 0.00 0.24 0.23 58 1015.9
20240523004540 57 143 1.0 4.0 0.00 0.25 0.23 57 1015.8
20240523003039 58 163 1.0 4.0 0.00 0.25 0.23 58 1015.7
20240523001542 57 184 1.0 4.0 0.00 0.25 0.23 57 1015.7
20240523000036 58 178 2.0 4.0 0.00 0.25 0.23 57 1015.6
20240522234548 58 146 0.0 5.0 0.00 0.26 0.23 59 1015.5
20240522233037 59 132 0.0 5.0 0.00 0.26 0.23 55 1015.4
20240522231536 60 169 1.0 6.0 0.00 0.26 0.23 55 1015.4
20240522230031 59 5 2.0 8.0 0.00 0.26 0.23 55 1015.2
20240522224530 59 140 1.0 6.0 0.00 0.26 0.23 53 1015.2
20240522223029 60 304 1.0 6.0 0.00 0.26 0.23 55 1015.1
20240522221526 59 115 1.0 5.0 0.00 0.26 0.23 60 1015.0
20240522220024 58 148 1.0 5.0 0.00 0.26 0.23 60 1015.0
20240522214522 58 33 2.0 6.0 0.00 0.26 0.23 58 1014.8
20240522213019 57 97 1.0 5.0 0.00 0.26 0.23 64 1014.7
20240522211519 56 14 1.0 8.0 0.00 0.26 0.23 63 1014.7
20240522210016 56 355 1.0 5.0 0.00 0.26 0.23 65 1014.5
20240522204523 56 26 1.0 6.0 0.00 0.26 0.23 66 1014.5
20240522203011 55 70 1.0 5.0 0.00 0.26 0.23 67 1014.3
20240522201509 55 164 0.0 6.0 0.00 0.26 0.23 63 1014.1
20240522200104 55 20 0.0 4.0 0.00 0.26 0.23 66 1014.0
20240522194559 53 64 2.0 5.0 0.00 0.26 0.23 70 1014.0
20240522193100 52 26 2.0 5.0 0.00 0.26 0.23 69 1013.9
20240522191559 53 52 1.0 4.0 0.00 0.26 0.23 69 1013.7
20240522190053 53 317 0.0 5.0 0.00 0.26 0.23 71 1013.6
20240522184552 53 57 1.0 3.0 0.00 0.26 0.23 72 1013.5
20240522183046 51 304 0.0 3.0 0.00 0.26 0.23 74 1013.4
20240522181550 50 317 0.0 3.0 0.00 0.26 0.23 74 1013.3
20240522180044 50 341 0.0 2.0 0.00 0.26 0.23 74 1013.1
20240522174542 50 46 0.0 3.0 0.00 0.27 0.23 75 1012.9
20240522173047 51 345 0.0 3.0 0.00 0.27 0.23 75 1012.8
20240522171544 50 347 1.0 4.0 0.00 0.27 0.23 74 1012.7
20240522170037 50 20 0.0 3.0 0.00 0.27 0.23 76 1012.5
20240522164537 49 50 0.0 4.0 0.00 0.28 0.23 79 1012.4
20240522163041 48 23 1.0 4.0 0.00 0.28 0.23 83 1012.4
20240522161536 48 315 1.0 3.0 0.00 0.28 0.23 84 1012.2
20240522160031 47 39 0.0 3.0 0.00 0.28 0.23 85 1012.2
20240522154531 47 71 1.0 4.0 0.00 0.31 0.23 85 1011.9
20240522153028 47 44 1.0 4.0 0.00 0.31 0.23 85 1011.9
20240522151526 46 355 0.0 2.0 0.00 0.31 0.23 85 1011.7
20240522150030 46 355 0.0 2.0 0.00 0.31 0.23 85 1011.4
20240522144522 45 355 0.0 2.0 0.00 0.32 0.23 85 1011.2
20240522143020 45 355 0.0 1.0 0.00 0.32 0.23 85 1011.0
20240522141519 45 355 0.0 4.0 0.00 0.32 0.23 85 1010.8
20240522140018 45 332 0.0 2.0 0.00 0.32 0.23 85 1010.7
20240522134517 44 332 0.0 2.0 0.00 0.32 0.23 85 1010.6
20240522133016 44 360 1.0 2.0 0.00 0.32 0.23 85 1010.4
20240522131516 44 360 0.0 1.0 0.00 0.32 0.23 84 1010.1